owner,sensor,date,latitude,longitude,vertical_datum,sea_water_practical_salinity,qcFlag 
SCCF RECON,ioos:station:SCCF:16:1,2012-04-01T00:00:00Z,26.4345,-81.9647,2.749,35.89,1111122 
SCCF RECON,ioos:station:SCCF:16:1,2012-04-01T01:00:00Z,26.4345,-81.9647,2.714,35.89,1111122 
SCCF RECON,ioos:station:SCCF:16:1,2012-04-01T02:00:00Z,26.4345,-81.9647,2.612,35.89,1111122 
SCCF RECON,ioos:station:SCCF:16:1,2012-04-01T03:00:00Z,26.4345,-81.9647,2.52,35.88,1111122 
SCCF RECON,ioos:station:SCCF:16:1,2012-04-01T04:00:00Z,26.4345,-81.9647,2.391,35.84,1111122 
SCCF RECON,ioos:station:SCCF:16:1,2012-04-01T05:00:00Z,26.4345,-81.9647,2.313,35.79,1111122 
SCCF RECON,ioos:station:SCCF:16:1,2012-04-01T06:00:00Z,26.4345,-81.9647,2.191,35.66,1111122 
SCCF RECON,ioos:station:SCCF:16:1,2012-04-01T07:00:00Z,26.4345,-81.9647,2.167,35.86,1111122 
SCCF RECON,ioos:station:SCCF:16:1,2012-04-01T08:00:00Z,26.4345,-81.9647,2.257,35.89,1111122 
SCCF RECON,ioos:station:SCCF:16:1,2012-04-01T09:00:00Z,26.4345,-81.9647,2.34,35.88,1111122 
SCCF RECON,ioos:station:SCCF:16:1,2012-04-01T10:00:00Z,26.4345,-81.9647,2.442,35.9,1111122 
SCCF RECON,ioos:station:SCCF:16:1,2012-04-01T11:00:00Z,26.4345,-81.9647,2.522,35.95,1111122 
SCCF RECON,ioos:station:SCCF:16:1,2012-04-01T12:00:00Z,26.4345,-81.9647,2.566,35.95,1111122 
SCCF RECON,ioos:station:SCCF:16:1,2012-04-01T13:00:00Z,26.4345,-81.9647,2.672,35.94,1111122 
SCCF RECON,ioos:station:SCCF:16:1,2012-04-01T14:00:00Z,26.4345,-81.9647,2.715,35.95,1111122 
SCCF RECON,ioos:station:SCCF:16:1,2012-04-01T15:00:00Z,26.4345,-81.9647,2.719,35.95,1111122 
SCCF RECON,ioos:station:SCCF:16:1,2012-04-01T16:00:00Z,26.4345,-81.9647,2.692,35.95,1111122 
SCCF RECON,ioos:station:SCCF:16:1,2012-04-01T17:00:00Z,26.4345,-81.9647,2.633,35.95,1111122 
SCCF RECON,ioos:station:SCCF:16:1,2012-04-01T18:00:00Z,26.4345,-81.9647,2.554,35.94,1111122 
SCCF RECON,ioos:station:SCCF:16:1,2012-04-01T19:00:00Z,26.4345,-81.9647,2.447,35.95,1111122 
SCCF RECON,ioos:station:SCCF:16:1,2012-04-01T20:00:00Z,26.4345,-81.9647,2.469,35.95,1111122 
SCCF RECON,ioos:station:SCCF:16:1,2012-04-01T21:00:00Z,26.4345,-81.9647,2.54,35.96,1111122 
SCCF RECON,ioos:station:SCCF:16:1,2012-04-01T22:00:00Z,26.4345,-81.9647,2.602,35.97,1111122 
SCCF RECON,ioos:station:SCCF:16:1,2012-04-01T23:00:00Z,26.4345,-81.9647,2.688,35.97,1111122 
SCCF RECON,ioos:station:SCCF:16:1,2012-04-02T00:00:00Z,26.4345,-81.9647,2.736,35.95,1111122 
SCCF RECON,ioos:station:SCCF:16:1,2012-04-02T01:00:00Z,26.4345,-81.9647,2.72,35.94,1111122 
SCCF RECON,ioos:station:SCCF:16:1,2012-04-02T02:00:00Z,26.4345,-81.9647,2.68,35.93,1111122 
SCCF RECON,ioos:station:SCCF:16:1,2012-04-02T03:00:00Z,26.4345,-81.9647,2.61,35.94,1111122 
SCCF RECON,ioos:station:SCCF:16:1,2012-04-02T04:00:00Z,26.4345,-81.9647,2.501,35.96,1111122 
SCCF RECON,ioos:station:SCCF:16:1,2012-04-02T05:00:00Z,26.4345,-81.9647,2.401,35.98,1111122 
SCCF RECON,ioos:station:SCCF:16:1,2012-04-02T06:00:00Z,26.4345,-81.9647,2.279,35.91,1111122 
SCCF RECON,ioos:station:SCCF:16:1,2012-04-02T07:00:00Z,26.4345,-81.9647,2.196,35.68,1111122 
SCCF RECON,ioos:station:SCCF:16:1,2012-04-02T08:00:00Z,26.4345,-81.9647,2.123,35.69,1111122 
SCCF RECON,ioos:station:SCCF:16:1,2012-04-02T09:00:00Z,26.4345,-81.9647,2.2,35.69,1111122 
SCCF RECON,ioos:station:SCCF:16:1,2012-04-02T10:00:00Z,26.4345,-81.9647,2.302,35.53,1111122 
SCCF RECON,ioos:station:SCCF:16:1,2012-04-02T11:00:00Z,26.4345,-81.9647,2.426,35.49,1111122 
SCCF RECON,ioos:station:SCCF:16:1,2012-04-02T12:00:00Z,26.4345,-81.9647,2.545,35.8,1111122 
SCCF RECON,ioos:station:SCCF:16:1,2012-04-02T13:00:00Z,26.4345,-81.9647,2.672,35.9,1111122 
SCCF RECON,ioos:station:SCCF:16:1,2012-04-02T14:00:00Z,26.4345,-81.9647,2.745,35.97,1111122 
SCCF RECON,ioos:station:SCCF:16:1,2012-04-02T15:00:00Z,26.4345,-81.9647,2.747,35.97,1111122 
SCCF RECON,ioos:station:SCCF:16:1,2012-04-02T16:00:00Z,26.4345,-81.9647,2.73,35.97,1111122 
SCCF RECON,ioos:station:SCCF:16:1,2012-04-02T17:00:00Z,26.4345,-81.9647,2.665,35.96,1111122 
SCCF RECON,ioos:station:SCCF:16:1,2012-04-02T18:00:00Z,26.4345,-81.9647,2.549,35.93,1111122 
SCCF RECON,ioos:station:SCCF:16:1,2012-04-02T19:00:00Z,26.4345,-81.9647,2.463,35.95,1111122 
SCCF RECON,ioos:station:SCCF:16:1,2012-04-02T20:00:00Z,26.4345,-81.9647,2.426,35.91,1111122 
SCCF RECON,ioos:station:SCCF:16:1,2012-04-02T21:00:00Z,26.4345,-81.9647,2.364,35.88,1111122 
SCCF RECON,ioos:station:SCCF:16:1,2012-04-02T22:00:00Z,26.4345,-81.9647,2.504,35.97,1111122 
SCCF RECON,ioos:station:SCCF:16:1,2012-04-02T23:00:00Z,26.4345,-81.9647,2.589,36.0,1111122 
SCCF RECON,ioos:station:SCCF:16:1,2012-04-03T00:00:00Z,26.4345,-81.9647,2.701,35.96,1111122 
SCCF RECON,ioos:station:SCCF:16:1,2012-04-03T01:00:00Z,26.4345,-81.9647,2.767,35.92,1111122 
SCCF RECON,ioos:station:SCCF:16:1,2012-04-03T02:00:00Z,26.4345,-81.9647,2.824,35.89,1111122 
SCCF RECON,ioos:station:SCCF:16:1,2012-04-03T03:00:00Z,26.4345,-81.9647,2.822,35.88,1111122 
SCCF RECON,ioos:station:SCCF:16:1,2012-04-03T04:00:00Z,26.4345,-81.9647,2.769,35.87,1111122 
SCCF RECON,ioos:station:SCCF:16:1,2012-04-03T05:00:00Z,26.4345,-81.9647,2.591,35.89,1111122 
SCCF RECON,ioos:station:SCCF:16:1,2012-04-03T06:00:00Z,26.4345,-81.9647,2.409,35.94,1111122 
SCCF RECON,ioos:station:SCCF:16:1,2012-04-03T07:00:00Z,26.4345,-81.9647,2.32,35.9,1111122 
SCCF RECON,ioos:station:SCCF:16:1,2012-04-03T08:00:00Z,26.4345,-81.9647,2.179,35.79,1111122 
SCCF RECON,ioos:station:SCCF:16:1,2012-04-03T09:00:00Z,26.4345,-81.9647,2.138,35.6,1111122 
SCCF RECON,ioos:station:SCCF:16:1,2012-04-03T10:00:00Z,26.4345,-81.9647,2.255,35.58,1111122 
SCCF RECON,ioos:station:SCCF:16:1,2012-04-03T11:00:00Z,26.4345,-81.9647,2.397,35.63,1111122 
SCCF RECON,ioos:station:SCCF:16:1,2012-04-03T12:00:00Z,26.4345,-81.9647,2.55,35.74,1111122 
SCCF RECON,ioos:station:SCCF:16:1,2012-04-03T13:00:00Z,26.4345,-81.9647,2.696,35.83,1111122 
SCCF RECON,ioos:station:SCCF:16:1,2012-04-03T14:00:00Z,26.4345,-81.9647,2.789,35.9,1111122 
SCCF RECON,ioos:station:SCCF:16:1,2012-04-03T15:00:00Z,26.4345,-81.9647,2.829,35.91,1111122 
SCCF RECON,ioos:station:SCCF:16:1,2012-04-03T16:00:00Z,26.4345,-81.9647,2.807,35.95,1111122 
SCCF RECON,ioos:station:SCCF:16:1,2012-04-03T17:00:00Z,26.4345,-81.9647,2.678,35.94,1111122 
SCCF RECON,ioos:station:SCCF:16:1,2012-04-03T18:00:00Z,26.4345,-81.9647,2.555,35.93,1111122 
SCCF RECON,ioos:station:SCCF:16:1,2012-04-03T19:00:00Z,26.4345,-81.9647,2.405,35.75,1111122 
SCCF RECON,ioos:station:SCCF:16:1,2012-04-03T20:00:00Z,26.4345,-81.9647,2.299,35.76,1111122 
SCCF RECON,ioos:station:SCCF:16:1,2012-04-03T21:00:00Z,26.4345,-81.9647,2.266,35.72,1111122 
SCCF RECON,ioos:station:SCCF:16:1,2012-04-03T22:00:00Z,26.4345,-81.9647,2.354,35.77,1111122 
SCCF RECON,ioos:station:SCCF:16:1,2012-04-03T23:00:00Z,26.4345,-81.9647,2.478,35.79,1111122 
SCCF RECON,ioos:station:SCCF:16:1,2012-04-04T00:00:00Z,26.4345,-81.9647,2.609,35.94,1111122 
SCCF RECON,ioos:station:SCCF:16:1,2012-04-04T01:00:00Z,26.4345,-81.9647,2.707,35.88,1111122 
SCCF RECON,ioos:station:SCCF:16:1,2012-04-04T02:00:00Z,26.4345,-81.9647,2.847,35.87,1111122 
SCCF RECON,ioos:station:SCCF:16:1,2012-04-04T03:00:00Z,26.4345,-81.9647,2.907,35.86,1111122 
SCCF RECON,ioos:station:SCCF:16:1,2012-04-04T04:00:00Z,26.4345,-81.9647,2.858,35.86,1111122 
SCCF RECON,ioos:station:SCCF:16:1,2012-04-04T05:00:00Z,26.4345,-81.9647,2.751,35.86,1111122 
SCCF RECON,ioos:station:SCCF:16:1,2012-04-04T06:00:00Z,26.4345,-81.9647,2.589,35.87,1111122 
SCCF RECON,ioos:station:SCCF:16:1,2012-04-04T07:00:00Z,26.4345,-81.9647,2.417,35.89,1111122 
SCCF RECON,ioos:station:SCCF:16:1,2012-04-04T08:00:00Z,26.4345,-81.9647,2.259,35.79,1111122 
SCCF RECON,ioos:station:SCCF:16:1,2012-04-04T09:00:00Z,26.4345,-81.9647,2.17,35.74,1111122 
SCCF RECON,ioos:station:SCCF:16:1,2012-04-04T10:00:00Z,26.4345,-81.9647,2.2,35.67,1111122 
SCCF RECON,ioos:station:SCCF:16:1,2012-04-04T11:00:00Z,26.4345,-81.9647,2.392,35.7,1111122 
SCCF RECON,ioos:station:SCCF:16:1,2012-04-04T12:00:00Z,26.4345,-81.9647,2.621,35.88,1111122 
SCCF RECON,ioos:station:SCCF:16:1,2012-04-04T13:00:00Z,26.4345,-81.9647,2.752,35.94,1111122 
SCCF RECON,ioos:station:SCCF:16:1,2012-04-04T14:00:00Z,26.4345,-81.9647,2.835,35.94,1111122 
SCCF RECON,ioos:station:SCCF:16:1,2012-04-04T15:00:00Z,26.4345,-81.9647,2.935,35.88,1111122 
SCCF RECON,ioos:station:SCCF:16:1,2012-04-04T16:00:00Z,26.4345,-81.9647,2.937,35.86,1111122 
SCCF RECON,ioos:station:SCCF:16:1,2012-04-04T17:00:00Z,26.4345,-81.9647,2.904,35.87,1111122 
SCCF RECON,ioos:station:SCCF:16:1,2012-04-04T18:00:00Z,26.4345,-81.9647,2.778,35.88,1111122 
SCCF RECON,ioos:station:SCCF:16:1,2012-04-04T19:00:00Z,26.4345,-81.9647,2.605,35.86,1111122 
SCCF RECON,ioos:station:SCCF:16:1,2012-04-04T20:00:00Z,26.4345,-81.9647,2.448,35.88,1111122 
SCCF RECON,ioos:station:SCCF:16:1,2012-04-04T21:00:00Z,26.4345,-81.9647,2.254,35.81,1111122 
SCCF RECON,ioos:station:SCCF:16:1,2012-04-04T22:00:00Z,26.4345,-81.9647,2.217,35.78,1111122 
SCCF RECON,ioos:station:SCCF:16:1,2012-04-04T23:00:00Z,26.4345,-81.9647,2.342,35.91,1111122 
SCCF RECON,ioos:station:SCCF:16:1,2012-04-05T00:00:00Z,26.4345,-81.9647,2.566,35.86,1111122 
SCCF RECON,ioos:station:SCCF:16:1,2012-04-05T01:00:00Z,26.4345,-81.9647,2.786,35.86,1111122 
SCCF RECON,ioos:station:SCCF:16:1,2012-04-05T02:00:00Z,26.4345,-81.9647,2.867,35.86,1111122 
SCCF RECON,ioos:station:SCCF:16:1,2012-04-05T03:00:00Z,26.4345,-81.9647,2.952,35.88,1111122 
SCCF RECON,ioos:station:SCCF:16:1,2012-04-05T04:00:00Z,26.4345,-81.9647,3.051,35.89,1111122 
SCCF RECON,ioos:station:SCCF:16:1,2012-04-05T05:00:00Z,26.4345,-81.9647,3.034,35.9,1111122 
SCCF RECON,ioos:station:SCCF:16:1,2012-04-05T06:00:00Z,26.4345,-81.9647,2.732,35.89,1111122 
SCCF RECON,ioos:station:SCCF:16:1,2012-04-05T07:00:00Z,26.4345,-81.9647,2.397,35.87,1111122 
SCCF RECON,ioos:station:SCCF:16:1,2012-04-05T08:00:00Z,26.4345,-81.9647,2.375,35.83,1111122 
SCCF RECON,ioos:station:SCCF:16:1,2012-04-05T09:00:00Z,26.4345,-81.9647,2.443,35.85,1111122 
SCCF RECON,ioos:station:SCCF:16:1,2012-04-05T10:00:00Z,26.4345,-81.9647,2.268,35.82,1111122 
SCCF RECON,ioos:station:SCCF:16:1,2012-04-05T11:00:00Z,26.4345,-81.9647,2.338,35.85,1111122 
SCCF RECON,ioos:station:SCCF:16:1,2012-04-05T12:00:00Z,26.4345,-81.9647,2.578,35.85,1111122 
SCCF RECON,ioos:station:SCCF:16:1,2012-04-05T13:00:00Z,26.4345,-81.9647,2.745,35.85,1111122 
SCCF RECON,ioos:station:SCCF:16:1,2012-04-05T14:00:00Z,26.4345,-81.9647,2.875,35.85,1111122 
SCCF RECON,ioos:station:SCCF:16:1,2012-04-05T15:00:00Z,26.4345,-81.9647,3.025,35.84,1111122 
SCCF RECON,ioos:station:SCCF:16:1,2012-04-05T16:00:00Z,26.4345,-81.9647,3.115,35.85,1111122 
SCCF RECON,ioos:station:SCCF:16:1,2012-04-05T17:00:00Z,26.4345,-81.9647,2.994,35.86,1111122 
SCCF RECON,ioos:station:SCCF:16:1,2012-04-05T18:00:00Z,26.4345,-81.9647,2.807,35.87,1111122 
SCCF RECON,ioos:station:SCCF:16:1,2012-04-05T19:00:00Z,26.4345,-81.9647,2.652,35.86,1111122 
SCCF RECON,ioos:station:SCCF:16:1,2012-04-05T20:00:00Z,26.4345,-81.9647,2.427,35.85,1111122 
SCCF RECON,ioos:station:SCCF:16:1,2012-04-05T21:00:00Z,26.4345,-81.9647,2.251,35.86,1111122 
SCCF RECON,ioos:station:SCCF:16:1,2012-04-05T22:00:00Z,26.4345,-81.9647,2.15,35.83,1111122 
SCCF RECON,ioos:station:SCCF:16:1,2012-04-05T23:00:00Z,26.4345,-81.9647,2.167,35.85,1111122 
SCCF RECON,ioos:station:SCCF:16:1,2012-04-06T00:00:00Z,26.4345,-81.9647,2.302,35.72,1111122 
SCCF RECON,ioos:station:SCCF:16:1,2012-04-06T01:00:00Z,26.4345,-81.9647,2.519,35.79,1111122 
SCCF RECON,ioos:station:SCCF:16:1,2012-04-06T02:00:00Z,26.4345,-81.9647,2.733,35.83,1111122 
SCCF RECON,ioos:station:SCCF:16:1,2012-04-06T03:00:00Z,26.4345,-81.9647,2.864,35.79,1111122 
SCCF RECON,ioos:station:SCCF:16:1,2012-04-06T04:00:00Z,26.4345,-81.9647,2.972,35.73,1111122 
SCCF RECON,ioos:station:SCCF:16:1,2012-04-06T05:00:00Z,26.4345,-81.9647,3.062,35.75,1111122 
SCCF RECON,ioos:station:SCCF:16:1,2012-04-06T06:00:00Z,26.4345,-81.9647,3.133,35.78,1111122 
SCCF RECON,ioos:station:SCCF:16:1,2012-04-06T07:00:00Z,26.4345,-81.9647,2.799,35.78,1111122 
SCCF RECON,ioos:station:SCCF:16:1,2012-04-06T08:00:00Z,26.4345,-81.9647,2.526,35.76,1111122 
SCCF RECON,ioos:station:SCCF:16:1,2012-04-06T09:00:00Z,26.4345,-81.9647,2.615,35.76,1111122 
SCCF RECON,ioos:station:SCCF:16:1,2012-04-06T10:00:00Z,26.4345,-81.9647,2.557,35.76,1111122 
SCCF RECON,ioos:station:SCCF:16:1,2012-04-06T11:00:00Z,26.4345,-81.9647,2.366,35.76,1111122 
SCCF RECON,ioos:station:SCCF:16:1,2012-04-06T12:00:00Z,26.4345,-81.9647,2.472,35.78,1111122 
SCCF RECON,ioos:station:SCCF:16:1,2012-04-06T13:00:00Z,26.4345,-81.9647,2.71,35.81,1111122 
SCCF RECON,ioos:station:SCCF:16:1,2012-04-06T14:00:00Z,26.4345,-81.9647,2.916,35.78,1111122 
SCCF RECON,ioos:station:SCCF:16:1,2012-04-06T15:00:00Z,26.4345,-81.9647,3.005,35.71,1111122 
SCCF RECON,ioos:station:SCCF:16:1,2012-04-06T16:00:00Z,26.4345,-81.9647,3.085,35.68,1111122 
SCCF RECON,ioos:station:SCCF:16:1,2012-04-06T17:00:00Z,26.4345,-81.9647,3.032,35.66,1111122 
SCCF RECON,ioos:station:SCCF:16:1,2012-04-06T18:00:00Z,26.4345,-81.9647,2.876,35.65,1111122 
SCCF RECON,ioos:station:SCCF:16:1,2012-04-06T19:00:00Z,26.4345,-81.9647,2.649,35.67,1111122 
SCCF RECON,ioos:station:SCCF:16:1,2012-04-06T20:00:00Z,26.4345,-81.9647,2.409,35.77,1111122 
SCCF RECON,ioos:station:SCCF:16:1,2012-04-06T21:00:00Z,26.4345,-81.9647,2.205,35.76,1111122 
SCCF RECON,ioos:station:SCCF:16:1,2012-04-06T22:00:00Z,26.4345,-81.9647,2.056,35.72,1111122 
SCCF RECON,ioos:station:SCCF:16:1,2012-04-06T23:00:00Z,26.4345,-81.9647,1.929,35.48,1111122 
SCCF RECON,ioos:station:SCCF:16:1,2012-04-07T00:00:00Z,26.4345,-81.9647,1.934,35.61,1111122 
SCCF RECON,ioos:station:SCCF:16:1,2012-04-07T01:00:00Z,26.4345,-81.9647,2.144,35.62,1111122 
SCCF RECON,ioos:station:SCCF:16:1,2012-04-07T02:00:00Z,26.4345,-81.9647,2.404,35.52,1111122 
SCCF RECON,ioos:station:SCCF:16:1,2012-04-07T03:00:00Z,26.4345,-81.9647,2.555,35.8,1111122 
SCCF RECON,ioos:station:SCCF:16:1,2012-04-07T04:00:00Z,26.4345,-81.9647,2.699,35.76,1111122 
SCCF RECON,ioos:station:SCCF:16:1,2012-04-07T05:00:00Z,26.4345,-81.9647,2.804,35.72,1111122 
SCCF RECON,ioos:station:SCCF:16:1,2012-04-07T06:00:00Z,26.4345,-81.9647,2.828,35.76,1111122 
SCCF RECON,ioos:station:SCCF:16:1,2012-04-07T07:00:00Z,26.4345,-81.9647,2.704,35.78,1111122 
SCCF RECON,ioos:station:SCCF:16:1,2012-04-07T08:00:00Z,26.4345,-81.9647,2.53,35.8,1111122 
SCCF RECON,ioos:station:SCCF:16:1,2012-04-07T09:00:00Z,26.4345,-81.9647,2.36,35.71,1111122 
SCCF RECON,ioos:station:SCCF:16:1,2012-04-07T10:00:00Z,26.4345,-81.9647,2.252,35.61,1111122 
SCCF RECON,ioos:station:SCCF:16:1,2012-04-07T11:00:00Z,26.4345,-81.9647,2.223,35.57,1111122 
SCCF RECON,ioos:station:SCCF:16:1,2012-04-07T12:00:00Z,26.4345,-81.9647,2.242,35.44,1111122 
SCCF RECON,ioos:station:SCCF:16:1,2012-04-07T13:00:00Z,26.4345,-81.9647,2.418,35.47,1111122 
SCCF RECON,ioos:station:SCCF:16:1,2012-04-07T14:00:00Z,26.4345,-81.9647,2.647,35.56,1111122 
SCCF RECON,ioos:station:SCCF:16:1,2012-04-07T15:00:00Z,26.4345,-81.9647,2.834,35.76,1111122 
SCCF RECON,ioos:station:SCCF:16:1,2012-04-07T16:00:00Z,26.4345,-81.9647,2.912,35.79,1111122 
SCCF RECON,ioos:station:SCCF:16:1,2012-04-07T17:00:00Z,26.4345,-81.9647,2.993,35.8,1111122 
SCCF RECON,ioos:station:SCCF:16:1,2012-04-07T18:00:00Z,26.4345,-81.9647,2.96,35.8,1111122 
SCCF RECON,ioos:station:SCCF:16:1,2012-04-07T19:00:00Z,26.4345,-81.9647,2.819,35.78,1111122 
SCCF RECON,ioos:station:SCCF:16:1,2012-04-07T20:00:00Z,26.4345,-81.9647,2.58,35.65,1111122 
SCCF RECON,ioos:station:SCCF:16:1,2012-04-07T21:00:00Z,26.4345,-81.9647,2.377,35.62,1111122 
SCCF RECON,ioos:station:SCCF:16:1,2012-04-07T22:00:00Z,26.4345,-81.9647,2.154,35.48,1111122 
SCCF RECON,ioos:station:SCCF:16:1,2012-04-07T23:00:00Z,26.4345,-81.9647,1.953,35.43,1111122 
SCCF RECON,ioos:station:SCCF:16:1,2012-04-08T00:00:00Z,26.4345,-81.9647,1.849,35.55,1111122 
SCCF RECON,ioos:station:SCCF:16:1,2012-04-08T01:00:00Z,26.4345,-81.9647,1.887,35.09,1111122 
SCCF RECON,ioos:station:SCCF:16:1,2012-04-08T02:00:00Z,26.4345,-81.9647,2.101,34.95,1111122 
SCCF RECON,ioos:station:SCCF:16:1,2012-04-08T03:00:00Z,26.4345,-81.9647,2.348,34.94,1111122 
SCCF RECON,ioos:station:SCCF:16:1,2012-04-08T04:00:00Z,26.4345,-81.9647,2.542,35.15,1111122 
SCCF RECON,ioos:station:SCCF:16:1,2012-04-08T05:00:00Z,26.4345,-81.9647,2.676,35.54,1111122 
SCCF RECON,ioos:station:SCCF:16:1,2012-04-08T06:00:00Z,26.4345,-81.9647,2.736,35.51,1111122 
SCCF RECON,ioos:station:SCCF:16:1,2012-04-08T07:00:00Z,26.4345,-81.9647,2.701,35.51,1111122 
SCCF RECON,ioos:station:SCCF:16:1,2012-04-08T08:00:00Z,26.4345,-81.9647,2.584,35.5,1111122 
SCCF RECON,ioos:station:SCCF:16:1,2012-04-08T09:00:00Z,26.4345,-81.9647,2.493,35.51,1111122 
SCCF RECON,ioos:station:SCCF:16:1,2012-04-08T10:00:00Z,26.4345,-81.9647,2.467,35.57,1111122 
SCCF RECON,ioos:station:SCCF:16:1,2012-04-08T11:00:00Z,26.4345,-81.9647,2.404,35.62,1111122 
SCCF RECON,ioos:station:SCCF:16:1,2012-04-08T12:00:00Z,26.4345,-81.9647,2.356,35.43,1111122 
SCCF RECON,ioos:station:SCCF:16:1,2012-04-08T13:00:00Z,26.4345,-81.9647,2.39,35.52,1111122 
SCCF RECON,ioos:station:SCCF:16:1,2012-04-08T14:00:00Z,26.4345,-81.9647,2.589,35.53,1111122 
SCCF RECON,ioos:station:SCCF:16:1,2012-04-08T15:00:00Z,26.4345,-81.9647,2.816,35.56,1111122 
SCCF RECON,ioos:station:SCCF:16:1,2012-04-08T16:00:00Z,26.4345,-81.9647,2.949,35.64,1111122 
SCCF RECON,ioos:station:SCCF:16:1,2012-04-08T17:00:00Z,26.4345,-81.9647,3.018,35.81,1111122 
SCCF RECON,ioos:station:SCCF:16:1,2012-04-08T18:00:00Z,26.4345,-81.9647,3.001,35.82,1111122 
SCCF RECON,ioos:station:SCCF:16:1,2012-04-08T19:00:00Z,26.4345,-81.9647,2.92,35.82,1111122 
SCCF RECON,ioos:station:SCCF:16:1,2012-04-08T20:00:00Z,26.4345,-81.9647,2.745,35.82,1111122 
SCCF RECON,ioos:station:SCCF:16:1,2012-04-08T21:00:00Z,26.4345,-81.9647,2.529,35.86,1111122 
SCCF RECON,ioos:station:SCCF:16:1,2012-04-08T22:00:00Z,26.4345,-81.9647,2.274,35.66,1111122 
SCCF RECON,ioos:station:SCCF:16:1,2012-04-08T23:00:00Z,26.4345,-81.9647,2.079,35.56,1111122 
SCCF RECON,ioos:station:SCCF:16:1,2012-04-09T00:00:00Z,26.4345,-81.9647,1.904,35.55,1111122 
SCCF RECON,ioos:station:SCCF:16:1,2012-04-09T01:00:00Z,26.4345,-81.9647,1.869,35.49,1111122 
SCCF RECON,ioos:station:SCCF:16:1,2012-04-09T02:00:00Z,26.4345,-81.9647,1.977,35.32,1111122 
SCCF RECON,ioos:station:SCCF:16:1,2012-04-09T03:00:00Z,26.4345,-81.9647,2.236,35.27,1111122 
SCCF RECON,ioos:station:SCCF:16:1,2012-04-09T04:00:00Z,26.4345,-81.9647,2.48,35.32,1111122 
SCCF RECON,ioos:station:SCCF:16:1,2012-04-09T05:00:00Z,26.4345,-81.9647,2.631,35.5,1111122 
SCCF RECON,ioos:station:SCCF:16:1,2012-04-09T06:00:00Z,26.4345,-81.9647,2.726,35.67,1111122 
SCCF RECON,ioos:station:SCCF:16:1,2012-04-09T07:00:00Z,26.4345,-81.9647,2.785,35.67,1111122 
SCCF RECON,ioos:station:SCCF:16:1,2012-04-09T08:00:00Z,26.4345,-81.9647,2.804,35.64,1111122 
SCCF RECON,ioos:station:SCCF:16:1,2012-04-09T09:00:00Z,26.4345,-81.9647,2.737,35.65,1111122 
SCCF RECON,ioos:station:SCCF:16:1,2012-04-09T10:00:00Z,26.4345,-81.9647,2.639,35.62,1111122 
SCCF RECON,ioos:station:SCCF:16:1,2012-04-09T11:00:00Z,26.4345,-81.9647,2.588,35.62,1111122 
SCCF RECON,ioos:station:SCCF:16:1,2012-04-09T12:00:00Z,26.4345,-81.9647,2.534,35.6,1111122 
SCCF RECON,ioos:station:SCCF:16:1,2012-04-09T13:00:00Z,26.4345,-81.9647,2.538,35.58,1111122 
SCCF RECON,ioos:station:SCCF:16:1,2012-04-09T14:00:00Z,26.4345,-81.9647,2.619,35.59,1111122 
SCCF RECON,ioos:station:SCCF:16:1,2012-04-09T15:00:00Z,26.4345,-81.9647,2.774,35.63,1111122 
SCCF RECON,ioos:station:SCCF:16:1,2012-04-09T16:00:00Z,26.4345,-81.9647,2.941,35.65,1111122 
SCCF RECON,ioos:station:SCCF:16:1,2012-04-09T17:00:00Z,26.4345,-81.9647,3.042,35.64,1111122 
SCCF RECON,ioos:station:SCCF:16:1,2012-04-09T18:00:00Z,26.4345,-81.9647,3.066,35.65,1111122 
SCCF RECON,ioos:station:SCCF:16:1,2012-04-09T19:00:00Z,26.4345,-81.9647,3.024,35.63,1111122 
SCCF RECON,ioos:station:SCCF:16:1,2012-04-09T20:00:00Z,26.4345,-81.9647,2.924,35.72,1111122 
SCCF RECON,ioos:station:SCCF:16:1,2012-04-09T21:00:00Z,26.4345,-81.9647,2.75,35.68,1111122 
SCCF RECON,ioos:station:SCCF:16:1,2012-04-09T22:00:00Z,26.4345,-81.9647,2.509,35.69,1111122 
SCCF RECON,ioos:station:SCCF:16:1,2012-04-09T23:00:00Z,26.4345,-81.9647,2.254,35.61,1111122 
SCCF RECON,ioos:station:SCCF:16:1,2012-04-10T00:00:00Z,26.4345,-81.9647,2.069,35.57,1111122 
SCCF RECON,ioos:station:SCCF:16:1,2012-04-10T01:00:00Z,26.4345,-81.9647,1.929,35.79,1111122 
SCCF RECON,ioos:station:SCCF:16:1,2012-04-10T02:00:00Z,26.4345,-81.9647,1.905,35.63,1111122 
SCCF RECON,ioos:station:SCCF:16:1,2012-04-10T03:00:00Z,26.4345,-81.9647,2.048,35.72,1111122 
SCCF RECON,ioos:station:SCCF:16:1,2012-04-10T04:00:00Z,26.4345,-81.9647,2.27,35.57,1111122 
SCCF RECON,ioos:station:SCCF:16:1,2012-04-10T05:00:00Z,26.4345,-81.9647,2.469,35.59,1111122 
SCCF RECON,ioos:station:SCCF:16:1,2012-04-10T06:00:00Z,26.4345,-81.9647,2.598,35.8,1111122 
SCCF RECON,ioos:station:SCCF:16:1,2012-04-10T07:00:00Z,26.4345,-81.9647,2.715,35.83,1111122 
SCCF RECON,ioos:station:SCCF:16:1,2012-04-10T08:00:00Z,26.4345,-81.9647,2.771,35.79,1111122 
SCCF RECON,ioos:station:SCCF:16:1,2012-04-10T09:00:00Z,26.4345,-81.9647,2.772,35.82,1111122 
SCCF RECON,ioos:station:SCCF:16:1,2012-04-10T10:00:00Z,26.4345,-81.9647,2.687,35.83,1111122 
SCCF RECON,ioos:station:SCCF:16:1,2012-04-10T11:00:00Z,26.4345,-81.9647,2.613,35.83,1111122 
SCCF RECON,ioos:station:SCCF:16:1,2012-04-10T12:00:00Z,26.4345,-81.9647,2.617,35.78,1111122 
SCCF RECON,ioos:station:SCCF:16:1,2012-04-10T13:00:00Z,26.4345,-81.9647,2.606,35.72,1111122 
SCCF RECON,ioos:station:SCCF:16:1,2012-04-10T14:00:00Z,26.4345,-81.9647,2.621,35.74,1111122 
SCCF RECON,ioos:station:SCCF:16:1,2012-04-10T16:00:00Z,26.4345,-81.9647,2.836,35.83,1111122 
SCCF RECON,ioos:station:SCCF:16:1,2012-04-10T17:00:00Z,26.4345,-81.9647,2.992,35.88,1111122 
SCCF RECON,ioos:station:SCCF:16:1,2012-04-10T18:00:00Z,26.4345,-81.9647,3.076,35.9,1111122 
SCCF RECON,ioos:station:SCCF:16:1,2012-04-10T19:00:00Z,26.4345,-81.9647,3.09,35.89,1111122 
SCCF RECON,ioos:station:SCCF:16:1,2012-04-10T20:00:00Z,26.4345,-81.9647,3.056,35.9,1111122 
SCCF RECON,ioos:station:SCCF:16:1,2012-04-10T21:00:00Z,26.4345,-81.9647,2.98,35.9,1111122 
SCCF RECON,ioos:station:SCCF:16:1,2012-04-10T22:00:00Z,26.4345,-81.9647,2.804,35.91,1111122 
SCCF RECON,ioos:station:SCCF:16:1,2012-04-10T23:00:00Z,26.4345,-81.9647,2.582,35.91,1111122 
SCCF RECON,ioos:station:SCCF:16:1,2012-04-11T00:00:00Z,26.4345,-81.9647,2.408,35.86,1111122 
SCCF RECON,ioos:station:SCCF:16:1,2012-04-11T01:00:00Z,26.4345,-81.9647,2.207,35.81,1111122 
SCCF RECON,ioos:station:SCCF:16:1,2012-04-11T02:00:00Z,26.4345,-81.9647,2.069,35.88,1111122 
SCCF RECON,ioos:station:SCCF:16:1,2012-04-11T03:00:00Z,26.4345,-81.9647,2.038,35.77,1111122 
SCCF RECON,ioos:station:SCCF:16:1,2012-04-11T04:00:00Z,26.4345,-81.9647,2.155,35.82,1111122 
SCCF RECON,ioos:station:SCCF:16:1,2012-04-11T05:00:00Z,26.4345,-81.9647,2.381,35.68,1111122 
SCCF RECON,ioos:station:SCCF:16:1,2012-04-11T06:00:00Z,26.4345,-81.9647,2.53,35.81,1111122 
SCCF RECON,ioos:station:SCCF:16:1,2012-04-11T07:00:00Z,26.4345,-81.9647,2.61,35.9,1111122 
SCCF RECON,ioos:station:SCCF:16:1,2012-04-11T08:00:00Z,26.4345,-81.9647,2.697,35.95,1111122 
SCCF RECON,ioos:station:SCCF:16:1,2012-04-11T09:00:00Z,26.4345,-81.9647,2.765,35.95,1111122 
SCCF RECON,ioos:station:SCCF:16:1,2012-04-11T10:00:00Z,26.4345,-81.9647,2.773,35.95,1111122 
SCCF RECON,ioos:station:SCCF:16:1,2012-04-11T11:00:00Z,26.4345,-81.9647,2.727,35.95,1111122 
SCCF RECON,ioos:station:SCCF:16:1,2012-04-11T12:00:00Z,26.4345,-81.9647,2.681,35.95,1111122 
SCCF RECON,ioos:station:SCCF:16:1,2012-04-11T13:00:00Z,26.4345,-81.9647,2.647,35.95,1111122 
SCCF RECON,ioos:station:SCCF:16:1,2012-04-11T14:00:00Z,26.4345,-81.9647,2.629,35.96,1111122 
SCCF RECON,ioos:station:SCCF:16:1,2012-04-11T15:00:00Z,26.4345,-81.9647,2.643,35.95,1111122 
SCCF RECON,ioos:station:SCCF:16:1,2012-04-11T16:00:00Z,26.4345,-81.9647,2.712,35.94,1111122 
SCCF RECON,ioos:station:SCCF:16:1,2012-04-11T17:00:00Z,26.4345,-81.9647,2.824,35.95,1111122 